,,,PA_Meas_PMT16A,,PR_Meas_QMR101_102,,RH_Meas_QMH101,,SR_Meas_QMS101,,TA_Meas_QMH101,,GenWind,,GenWind,
date,time,status,PA,status,PR,status,RH,status,SR,status,TA,status,DirAvg,status,SpdAvg,
2010-06-09, 00:00:04,VALID,1004.85,VALID,0,VALID,97.9548,VALID,0.100563,VALID,24.9282,VALID,72,VALID,0,
2010-06-09, 00:01:04,VALID,1004.81,VALID,0,VALID,97.993,VALID,0,VALID,24.93,VALID,72,VALID,0.0828125,
2010-06-09, 00:02:04,VALID,1004.8,VALID,0,VALID,98.0082,VALID,0,VALID,24.9106,VALID,72,VALID,0.146094,
2010-06-09, 00:03:04,VALID,1004.78,VALID,0,VALID,98.0387,VALID,0,VALID,24.8911,VALID,72,VALID,0.476563,
2010-06-09, 00:04:04,VALID,1004.78,VALID,0,VALID,98.0387,VALID,0,VALID,24.8911,VALID,55,VALID,0.498047,
2010-06-09, 00:05:04,VALID,1004.78,VALID,0,VALID,98.054,VALID,0,VALID,24.8911,VALID,18,VALID,0.394922,
2010-06-09, 00:06:04,VALID,1004.78,VALID,0,VALID,98.0998,VALID,0,VALID,24.8911,VALID,347,VALID,0.505469,
2010-06-09, 00:07:04,VALID,1004.75,VALID,0,VALID,98.1227,VALID,0,VALID,24.8716,VALID,347,VALID,0,
2010-06-09, 00:08:04,VALID,1004.73,VALID,0,VALID,98.1227,VALID,0,VALID,24.8522,VALID,347,VALID,0,
2010-06-09, 00:09:04,VALID,1004.77,VALID,0,VALID,98.1227,VALID,0,VALID,24.8327,VALID,347,VALID,0,
2010-06-09, 00:10:04,VALID,1004.76,VALID,0,VALID,98.1608,VALID,0,VALID,24.8346,VALID,347,VALID,0,
2010-06-09, 00:11:04,VALID,1004.74,VALID,0,VALID,98.1684,VALID,0,VALID,24.8151,VALID,347,VALID,0.285547,
2010-06-09, 00:12:04,VALID,1004.71,VALID,0,VALID,98.1761,VALID,0,VALID,24.7743,VALID,347,VALID,0.150781,
2010-06-09, 00:13:04,VALID,1004.69,VALID,0,VALID,98.199,VALID,0,VALID,24.7743,VALID,347,VALID,0.281641,
2010-06-09, 00:14:04,VALID,1004.66,VALID,0,VALID,98.2066,VALID,0,VALID,24.7937,VALID,346,VALID,0.258203,
2010-06-09, 00:15:04,VALID,1004.64,VALID,0,VALID,98.2371,VALID,0,VALID,24.8132,VALID,346,VALID,0,
2010-06-09, 00:16:04,VALID,1004.62,VALID,0,VALID,98.2905,VALID,0.100563,VALID,24.8113,VALID,346,VALID,0,
2010-06-09, 00:17:04,VALID,1004.65,VALID,0,VALID,98.2752,VALID,0,VALID,24.7919,VALID,30,VALID,0.404297,
2010-06-09, 00:18:04,VALID,1004.61,VALID,0,VALID,98.2523,VALID,0,VALID,24.7705,VALID,38,VALID,0.467578,
2010-06-09, 00:19:04,VALID,1004.58,VALID,0,VALID,98.2447,VALID,0,VALID,24.8095,VALID,11,VALID,0.508594,
2010-06-09, 00:20:04,VALID,1004.55,VALID,0,VALID,98.2829,VALID,0,VALID,24.8308,VALID,7,VALID,0.370313,
2010-06-09, 00:21:04,VALID,1004.54,VALID,0,VALID,98.3058,VALID,0,VALID,24.8522,VALID,7,VALID,0.00351562,
2010-06-09, 00:22:04,VALID,1004.55,VALID,0,VALID,98.2752,VALID,0,VALID,24.8308,VALID,7,VALID,0,
2010-06-09, 00:23:04,VALID,1004.59,VALID,0,VALID,98.2829,VALID,0,VALID,24.8327,VALID,7,VALID,0.285547,
2010-06-09, 00:24:04,VALID,1004.62,VALID,0,VALID,98.2981,VALID,0,VALID,24.7937,VALID,124,VALID,0.628125,
2010-06-09, 00:25:04,VALID,1004.65,VALID,0,VALID,98.2676,VALID,0,VALID,24.7353,VALID,124,VALID,0.504297,
2010-06-09, 00:26:04,VALID,1004.62,VALID,0,VALID,98.2523,VALID,0,VALID,24.714,VALID,124,VALID,0.530078,
2010-06-09, 00:27:04,VALID,1004.64,VALID,0,VALID,98.2295,VALID,0,VALID,24.6945,VALID,124,VALID,0.376172,
2010-06-09, 00:28:04,VALID,1004.6,VALID,0,VALID,98.2523,VALID,0,VALID,24.6556,VALID,124,VALID,0.39375,
2010-06-09, 00:29:04,VALID,1004.59,VALID,0,VALID,98.2447,VALID,0,VALID,24.6574,VALID,124,VALID,0.280078,
2010-06-09, 00:30:04,VALID,1004.6,VALID,0,VALID,98.2447,VALID,0,VALID,24.6361,VALID,124,VALID,0.133594,
2010-06-09, 00:31:04,VALID,1004.59,VALID,0,VALID,98.2752,VALID,0,VALID,24.638,VALID,124,VALID,0,
2010-06-09, 00:32:04,VALID,1004.62,VALID,0,VALID,98.2676,VALID,0,VALID,24.5972,VALID,124,VALID,0,
2010-06-09, 00:33:04,VALID,1004.62,VALID,0,VALID,98.2981,VALID,0,VALID,24.5972,VALID,124,VALID,0,
2010-06-09, 00:34:04,VALID,1004.66,VALID,0,VALID,98.3134,VALID,0,VALID,24.5777,VALID,124,VALID,0,
2010-06-09, 00:35:04,VALID,1004.64,VALID,0,VALID,98.3134,VALID,0.100563,VALID,24.5777,VALID,124,VALID,0,
2010-06-09, 00:36:04,VALID,1004.63,VALID,0,VALID,98.3058,VALID,0,VALID,24.5777,VALID,124,VALID,0,
2010-06-09, 00:37:04,VALID,1004.57,VALID,0,VALID,98.3134,VALID,0,VALID,24.6166,VALID,124,VALID,0,
2010-06-09, 00:38:04,VALID,1004.56,VALID,0,VALID,98.3439,VALID,0,VALID,24.6148,VALID,124,VALID,0,
2010-06-09, 00:39:04,VALID,1004.55,VALID,0,VALID,98.3286,VALID,0,VALID,24.6166,VALID,124,VALID,0,
2010-06-09, 00:40:04,VALID,1004.52,VALID,0,VALID,98.3363,VALID,0,VALID,24.6185,VALID,124,VALID,0,
2010-06-09, 00:41:04,VALID,1004.5,VALID,0,VALID,98.3744,VALID,0,VALID,24.6185,VALID,124,VALID,0,
2010-06-09, 00:42:04,VALID,1004.48,VALID,0,VALID,98.3668,VALID,0,VALID,24.638,VALID,124,VALID,0,
2010-06-09, 00:43:04,VALID,1004.49,VALID,0,VALID,98.3744,VALID,0,VALID,24.638,VALID,124,VALID,0,
2010-06-09, 00:44:04,VALID,1004.49,VALID,0,VALID,98.3592,VALID,0,VALID,24.6166,VALID,124,VALID,0,
2010-06-09, 00:45:04,VALID,1004.48,VALID,0,VALID,98.3439,VALID,0,VALID,24.6361,VALID,124,VALID,0,
2010-06-09, 00:46:04,VALID,1004.45,VALID,0,VALID,98.3515,VALID,0,VALID,24.6769,VALID,67,VALID,0,
2010-06-09, 00:47:04,VALID,1004.4,VALID,0,VALID,98.3668,VALID,0,VALID,24.6964,VALID,62,VALID,0,
2010-06-09, 00:48:04,VALID,1004.38,VALID,0,VALID,98.3592,VALID,0,VALID,24.6574,VALID,62,VALID,0,
2010-06-09, 00:49:04,VALID,1004.32,VALID,0,VALID,98.382,VALID,0,VALID,24.6769,VALID,62,VALID,0,
2010-06-09, 00:50:04,VALID,1004.3,VALID,0,VALID,98.3515,VALID,0,VALID,24.6769,VALID,62,VALID,0,
2010-06-09, 00:51:04,VALID,1004.23,VALID,0,VALID,98.3592,VALID,0,VALID,24.6769,VALID,62,VALID,0,
2010-06-09, 00:52:04,VALID,1004.19,VALID,0,VALID,98.3439,VALID,0,VALID,24.7353,VALID,62,VALID,0,
2010-06-09, 00:53:04,VALID,1004.17,VALID,0,VALID,98.3286,VALID,0,VALID,24.7743,VALID,336,VALID,0.262891,
2010-06-09, 00:54:04,VALID,1004.16,VALID,0,VALID,98.3363,VALID,0,VALID,24.8132,VALID,337,VALID,0.144141,
2010-06-09, 00:55:04,VALID,1004.15,VALID,0,VALID,98.3439,VALID,0,VALID,24.8522,VALID,337,VALID,0,
2010-06-09, 00:56:04,VALID,1004.14,VALID,0,VALID,98.3286,VALID,0,VALID,24.893,VALID,337,VALID,0,
2010-06-09, 00:57:04,VALID,1004.12,VALID,0,VALID,98.3592,VALID,0,VALID,24.8911,VALID,337,VALID,0,
2010-06-09, 00:58:04,VALID,1004.11,VALID,0,VALID,98.3363,VALID,0,VALID,24.9319,VALID,337,VALID,0,
2010-06-09, 00:59:04,VALID,1004.1,VALID,0,VALID,98.3363,VALID,0,VALID,24.93,VALID,337,VALID,0,
2010-06-09, 01:00:04,VALID,1004.11,VALID,0,VALID,98.3286,VALID,0,VALID,24.969,VALID,337,VALID,0,
2010-06-09, 01:01:04,VALID,1004.1,VALID,0,VALID,98.3286,VALID,0,VALID,24.9476,VALID,337,VALID,0,
2010-06-09, 01:02:04,VALID,1004.11,VALID,0,VALID,98.3363,VALID,0,VALID,24.9885,VALID,337,VALID,0.424219,
2010-06-09, 01:03:04,VALID,1004.12,VALID,0,VALID,98.321,VALID,0,VALID,24.9866,VALID,337,VALID,0.482812,
2010-06-09, 01:04:04,VALID,1004.13,VALID,0,VALID,98.3286,VALID,0,VALID,24.9866,VALID,337,VALID,0.639063,
2010-06-09, 01:05:04,VALID,1004.13,VALID,0,VALID,98.3363,VALID,0,VALID,24.9866,VALID,337,VALID,0.552734,
2010-06-09, 01:06:04,VALID,1004.1,VALID,0,VALID,98.3439,VALID,0,VALID,25.0274,VALID,339,VALID,0.320313,
2010-06-09, 01:07:04,VALID,1004.1,VALID,0,VALID,98.3592,VALID,0,VALID,25.0274,VALID,340,VALID,0.582812,
2010-06-09, 01:08:04,VALID,1004.06,VALID,0,VALID,98.3363,VALID,0,VALID,25.0079,VALID,343,VALID,0.226563,
2010-06-09, 01:09:04,VALID,1004.08,VALID,0,VALID,98.3592,VALID,0,VALID,25.0098,VALID,343,VALID,0.396875,
2010-06-09, 01:10:04,VALID,1004.08,VALID,0,VALID,98.3363,VALID,0,VALID,24.9904,VALID,343,VALID,0.498828,
2010-06-09, 01:11:04,VALID,1004.06,VALID,0,VALID,98.3668,VALID,0,VALID,24.9495,VALID,343,VALID,0.415234,
2010-06-09, 01:12:04,VALID,1004.06,VALID,0,VALID,98.3744,VALID,0,VALID,24.93,VALID,343,VALID,0.448828,
2010-06-09, 01:13:04,VALID,1004.05,VALID,0,VALID,98.3668,VALID,0,VALID,24.9125,VALID,343,VALID,0.475391,
2010-06-09, 01:14:04,VALID,1004.05,VALID,0,VALID,98.3744,VALID,0,VALID,24.8716,VALID,343,VALID,0.344141,
2010-06-09, 01:15:04,VALID,1004.06,VALID,0,VALID,98.3744,VALID,0,VALID,24.8327,VALID,343,VALID,0.123047,
2010-06-09, 01:16:04,VALID,1004.05,VALID,0,VALID,98.3592,VALID,0,VALID,24.8113,VALID,343,VALID,0.1,
2010-06-09, 01:17:04,VALID,1004.07,VALID,0,VALID,98.3668,VALID,0,VALID,24.8113,VALID,343,VALID,0,
2010-06-09, 01:18:04,VALID,1004.09,VALID,0,VALID,98.3592,VALID,0,VALID,24.7919,VALID,343,VALID,0,
2010-06-09, 01:19:04,VALID,1004.07,VALID,0,VALID,98.3515,VALID,0,VALID,24.7724,VALID,343,VALID,0,
2010-06-09, 01:20:04,VALID,1004.04,VALID,0,VALID,98.3668,VALID,0.100563,VALID,24.7724,VALID,343,VALID,0,
2010-06-09, 01:21:04,VALID,1004,VALID,0,VALID,98.382,VALID,0,VALID,24.7335,VALID,343,VALID,0,
2010-06-09, 01:22:04,VALID,1003.97,VALID,0,VALID,98.3973,VALID,0,VALID,24.7743,VALID,343,VALID,0,
2010-06-09, 01:23:04,VALID,1003.94,VALID,0,VALID,98.382,VALID,0,VALID,24.714,VALID,343,VALID,0,
2010-06-09, 01:24:04,VALID,1003.88,VALID,0,VALID,98.3973,VALID,0,VALID,24.6945,VALID,345,VALID,0.560938,
2010-06-09, 01:25:04,VALID,1003.89,VALID,0,VALID,98.4049,VALID,0.100563,VALID,24.6769,VALID,345,VALID,0.489453,
2010-06-09, 01:26:04,VALID,1003.87,VALID,0,VALID,98.4126,VALID,0.100563,VALID,24.6361,VALID,345,VALID,0.284375,
2010-06-09, 01:27:04,VALID,1003.86,VALID,0,VALID,98.4049,VALID,0.100563,VALID,24.5953,VALID,345,VALID,0.26875,
2010-06-09, 01:28:04,VALID,1003.84,VALID,0,VALID,98.4202,VALID,0,VALID,24.5777,VALID,345,VALID,0.422266,
2010-06-09, 01:29:04,VALID,1003.77,VALID,0,VALID,98.3973,VALID,0,VALID,24.5582,VALID,345,VALID,0.259766,
2010-06-09, 01:30:04,VALID,1003.72,VALID,0,VALID,98.4202,VALID,0,VALID,24.5582,VALID,345,VALID,0.179688,
2010-06-09, 01:31:04,VALID,1003.68,VALID,0,VALID,98.3973,VALID,0,VALID,24.5796,VALID,345,VALID,0.15625,
2010-06-09, 01:32:04,VALID,1003.67,VALID,0,VALID,98.4202,VALID,0,VALID,24.5582,VALID,345,VALID,0.0648438,
2010-06-09, 01:33:04,VALID,1003.64,VALID,0,VALID,98.4507,VALID,0,VALID,24.5796,VALID,345,VALID,0,
2010-06-09, 01:34:04,VALID,1003.68,VALID,0,VALID,98.4431,VALID,0,VALID,24.5388,VALID,345,VALID,0.195313,
2010-06-09, 01:35:04,VALID,1003.65,VALID,0,VALID,98.4431,VALID,0,VALID,24.5193,VALID,345,VALID,0,
2010-06-09, 01:36:04,VALID,1003.67,VALID,0,VALID,98.4431,VALID,0,VALID,24.4998,VALID,345,VALID,0,
2010-06-09, 01:37:04,VALID,1003.63,VALID,0,VALID,98.4507,VALID,0,VALID,24.5017,VALID,345,VALID,0,
2010-06-09, 01:38:04,VALID,1003.59,VALID,0,VALID,98.4431,VALID,0,VALID,24.5017,VALID,345,VALID,0,
2010-06-09, 01:39:04,VALID,1003.6,VALID,0,VALID,98.4278,VALID,0,VALID,24.5017,VALID,345,VALID,0.000390625,
2010-06-09, 01:40:04,VALID,1003.6,VALID,0,VALID,98.4354,VALID,0,VALID,24.5017,VALID,345,VALID,0,
2010-06-09, 01:41:04,VALID,1003.59,VALID,0,VALID,98.4507,VALID,0,VALID,24.4628,VALID,345,VALID,0,
2010-06-09, 01:42:04,VALID,1003.58,VALID,0,VALID,98.4507,VALID,0,VALID,24.4822,VALID,345,VALID,0.255078,
2010-06-09, 01:43:04,VALID,1003.61,VALID,0,VALID,98.4278,VALID,0,VALID,24.5017,VALID,345,VALID,0.0929687,
2010-06-09, 01:44:04,VALID,1003.62,VALID,0,VALID,98.4354,VALID,0,VALID,24.5212,VALID,345,VALID,0.223438,
2010-06-09, 01:45:04,VALID,1003.68,VALID,0,VALID,98.4431,VALID,0,VALID,24.5017,VALID,345,VALID,0,
2010-06-09, 01:46:04,VALID,1003.73,VALID,0,VALID,98.4354,VALID,0,VALID,24.4822,VALID,345,VALID,0.152344,
2010-06-09, 01:47:04,VALID,1003.77,VALID,0,VALID,98.466,VALID,0,VALID,24.422,VALID,345,VALID,0,
2010-06-09, 01:48:04,VALID,1003.81,VALID,0,VALID,98.4507,VALID,0,VALID,24.4025,VALID,345,VALID,0,
2010-06-09, 01:49:04,VALID,1003.83,VALID,0,VALID,98.4507,VALID,0,VALID,24.4238,VALID,345,VALID,0,
2010-06-09, 01:50:04,VALID,1003.85,VALID,0,VALID,98.4278,VALID,0,VALID,24.4433,VALID,345,VALID,0.483203,
2010-06-09, 01:51:04,VALID,1003.88,VALID,0,VALID,98.4278,VALID,0,VALID,24.4628,VALID,5,VALID,0.697656,
2010-06-09, 01:52:04,VALID,1003.89,VALID,0,VALID,98.4354,VALID,0,VALID,24.4238,VALID,5,VALID,0.671094,
2010-06-09, 01:53:04,VALID,1003.92,VALID,0,VALID,98.4278,VALID,0,VALID,24.4025,VALID,5,VALID,0.580078,
2010-06-09, 01:54:04,VALID,1003.92,VALID,0,VALID,98.4354,VALID,0,VALID,24.383,VALID,5,VALID,0.425781,
2010-06-09, 01:55:04,VALID,1003.95,VALID,0,VALID,98.4583,VALID,0,VALID,24.383,VALID,5,VALID,0.496094,
2010-06-09, 01:56:04,VALID,1003.95,VALID,0,VALID,98.4507,VALID,0,VALID,24.4257,VALID,4,VALID,0.514453,
2010-06-09, 01:57:04,VALID,1003.98,VALID,0,VALID,98.4354,VALID,0,VALID,24.4043,VALID,4,VALID,0.781641,
2010-06-09, 01:58:04,VALID,1003.96,VALID,0,VALID,98.3744,VALID,0,VALID,24.4822,VALID,4,VALID,0.542188,
2010-06-09, 01:59:04,VALID,1003.92,VALID,0,VALID,98.3515,VALID,0,VALID,24.4998,VALID,4,VALID,0.472656,
2010-06-09, 02:00:04,VALID,1003.92,VALID,0,VALID,98.3058,VALID,0,VALID,24.5777,VALID,4,VALID,0.254297,
2010-06-09, 02:01:04,VALID,1003.95,VALID,0,VALID,98.2905,VALID,0,VALID,24.6361,VALID,4,VALID,0.205078,
2010-06-09, 02:02:04,VALID,1003.98,VALID,0,VALID,98.3515,VALID,0,VALID,24.638,VALID,92,VALID,0.388281,
2010-06-09, 02:03:04,VALID,1004.02,VALID,0,VALID,98.3363,VALID,0,VALID,24.6556,VALID,67,VALID,0.36875,
2010-06-09, 02:04:04,VALID,1003.99,VALID,0,VALID,98.2981,VALID,0,VALID,24.675,VALID,54,VALID,0.510938,
2010-06-09, 02:05:04,VALID,1004.02,VALID,0,VALID,98.2905,VALID,0,VALID,24.714,VALID,49,VALID,0.83125,
2010-06-09, 02:06:04,VALID,1003.92,VALID,0,VALID,98.2829,VALID,0.100563,VALID,24.7743,VALID,41,VALID,0.432422,
2010-06-09, 02:07:04,VALID,1003.94,VALID,0,VALID,98.26,VALID,0,VALID,24.8327,VALID,41,VALID,0.437109,
2010-06-09, 02:08:04,VALID,1003.96,VALID,0,VALID,98.2981,VALID,0,VALID,24.7919,VALID,38,VALID,0.66875,
2010-06-09, 02:09:04,VALID,1003.9,VALID,0,VALID,98.26,VALID,0,VALID,24.8522,VALID,37,VALID,0.375781,
2010-06-09, 02:10:04,VALID,1003.86,VALID,0,VALID,98.26,VALID,0,VALID,24.8716,VALID,38,VALID,0.448047,
2010-06-09, 02:11:04,VALID,1003.8,VALID,0,VALID,98.2295,VALID,0,VALID,25.0079,VALID,115,VALID,0.889453,
2010-06-09, 02:12:04,VALID,1003.78,VALID,0,VALID,98.1684,VALID,0,VALID,25.1248,VALID,338,VALID,0.414844,
2010-06-09, 02:13:04,VALID,1003.78,VALID,0,VALID,98.2295,VALID,0,VALID,25.0839,VALID,24,VALID,0.675781,
2010-06-09, 02:14:04,VALID,1003.78,VALID,0,VALID,98.2752,VALID,0,VALID,25.1034,VALID,32,VALID,0.933594,
2010-06-09, 02:15:04,VALID,1003.82,VALID,0,VALID,98.1837,VALID,0,VALID,25.2592,VALID,29,VALID,1.05625,
2010-06-09, 02:16:04,VALID,1003.78,VALID,0,VALID,98.1913,VALID,0,VALID,25.4539,VALID,24,VALID,1.14766,
2010-06-09, 02:17:04,VALID,1003.84,VALID,0,VALID,98.321,VALID,0,VALID,25.5532,VALID,19,VALID,1.15508,
2010-06-09, 02:18:04,VALID,1003.86,VALID,0,VALID,98.3973,VALID,0,VALID,25.6097,VALID,352,VALID,1.76953,
2010-06-09, 02:19:04,VALID,1003.88,VALID,0,VALID,98.4126,VALID,0,VALID,25.7265,VALID,5,VALID,2.42812,
2010-06-09, 02:20:04,VALID,1003.9,VALID,0,VALID,98.1303,VALID,0,VALID,25.8434,VALID,14,VALID,3.40273,
2010-06-09, 02:21:04,VALID,1003.86,VALID,0,VALID,97.0165,VALID,0,VALID,25.9622,VALID,17,VALID,1.36406,
2010-06-09, 02:22:04,VALID,1003.81,VALID,0,VALID,95.8416,VALID,0,VALID,26.0206,VALID,21,VALID,1.24844,
2010-06-09, 02:23:04,VALID,1003.79,VALID,0,VALID,95.1932,VALID,0,VALID,26.0401,VALID,355,VALID,0.975,
2010-06-09, 02:24:04,VALID,1003.77,VALID,0,VALID,90.1047,VALID,0,VALID,26.0401,VALID,355,VALID,1.10586,
2010-06-09, 02:25:04,VALID,1003.73,VALID,0,VALID,90.3107,VALID,0,VALID,26.0206,VALID,9,VALID,0.744531,
2010-06-09, 02:26:04,VALID,1003.71,VALID,0,VALID,89.9674,VALID,0,VALID,26.0012,VALID,4,VALID,1.33281,
2010-06-09, 02:27:04,VALID,1003.7,VALID,0,VALID,89.975,VALID,0,VALID,26.0206,VALID,354,VALID,0.583594,
2010-06-09, 02:28:04,VALID,1003.7,VALID,0,VALID,89.1511,VALID,0,VALID,25.9817,VALID,50,VALID,0.607422,
2010-06-09, 02:29:04,VALID,1003.72,VALID,0,VALID,88.8917,VALID,0,VALID,25.9622,VALID,41,VALID,0.541406,
2010-06-09, 02:30:04,VALID,1003.74,VALID,0,VALID,88.8078,VALID,0,VALID,25.9427,VALID,83,VALID,0.909766,
2010-06-09, 02:31:04,VALID,1003.76,VALID,0,VALID,88.8765,VALID,0,VALID,25.9427,VALID,44,VALID,0.498047,
2010-06-09, 02:32:04,VALID,1003.81,VALID,0,VALID,88.4187,VALID,0,VALID,25.9252,VALID,67,VALID,0.728906,
2010-06-09, 02:33:04,VALID,1003.82,VALID,0,VALID,88.3577,VALID,0,VALID,25.9038,VALID,21,VALID,0.508203,
2010-06-09, 02:34:04,VALID,1003.83,VALID,0,VALID,88.2967,VALID,0,VALID,25.8629,VALID,100,VALID,0.4625,
2010-06-09, 02:35:04,VALID,1003.87,VALID,0,VALID,88.1212,VALID,0,VALID,25.8648,VALID,98,VALID,0.640625,
2010-06-09, 02:36:04,VALID,1003.85,VALID,0,VALID,87.9228,VALID,0,VALID,25.8668,VALID,94,VALID,0.742578,
2010-06-09, 02:37:04,VALID,1003.85,VALID,0,VALID,87.9228,VALID,0,VALID,25.8453,VALID,95,VALID,0.415234,
2010-06-09, 02:38:04,VALID,1003.83,VALID,0,VALID,87.9915,VALID,0,VALID,25.8259,VALID,95,VALID,0.542969,
2010-06-09, 02:39:04,VALID,1003.76,VALID,0,VALID,87.961,VALID,0,VALID,25.785,VALID,96,VALID,0.194922,
2010-06-09, 02:40:04,VALID,1003.74,VALID,0,VALID,88.0907,VALID,0,VALID,25.7869,VALID,96,VALID,0.307422,
2010-06-09, 02:41:04,VALID,1003.7,VALID,0,VALID,88.0144,VALID,0,VALID,25.7674,VALID,96,VALID,0.125391,
2010-06-09, 02:42:04,VALID,1003.69,VALID,0,VALID,88.3424,VALID,0,VALID,25.748,VALID,61,VALID,0.558984,
2010-06-09, 02:43:04,VALID,1003.68,VALID,0,VALID,88.6628,VALID,0,VALID,25.6506,VALID,11,VALID,0.607813,
2010-06-09, 02:44:04,VALID,1003.64,VALID,0,VALID,88.8383,VALID,0,VALID,25.5727,VALID,11,VALID,0.265234,
2010-06-09, 02:45:04,VALID,1003.63,VALID,0,VALID,89.113,VALID,0,VALID,25.5162,VALID,11,VALID,0.271875,
2010-06-09, 02:46:04,VALID,1003.62,VALID,0,VALID,89.4486,VALID,0,VALID,25.4558,VALID,9,VALID,0.426562,
2010-06-09, 02:47:04,VALID,1003.59,VALID,0,VALID,89.9598,VALID,0,VALID,25.3974,VALID,9,VALID,0,
2010-06-09, 02:48:04,VALID,1003.58,VALID,0,VALID,90.4022,VALID,0,VALID,25.3584,VALID,9,VALID,0.336328,
2010-06-09, 02:49:04,VALID,1003.6,VALID,0,VALID,90.8676,VALID,0,VALID,25.3409,VALID,9,VALID,0.203125,
2010-06-09, 02:50:04,VALID,1003.66,VALID,0,VALID,91.0431,VALID,0,VALID,25.3214,VALID,9,VALID,0,
2010-06-09, 02:51:04,VALID,1003.7,VALID,0,VALID,92.5002,VALID,0,VALID,25.2611,VALID,9,VALID,0,
2010-06-09, 02:52:04,VALID,1003.67,VALID,0,VALID,93.7971,VALID,0,VALID,25.2221,VALID,9,VALID,0,
2010-06-09, 02:53:04,VALID,1003.68,VALID,0,VALID,94.766,VALID,0,VALID,25.2027,VALID,9,VALID,0,
2010-06-09, 02:54:04,VALID,1003.68,VALID,0,VALID,95.1169,VALID,0,VALID,25.1656,VALID,9,VALID,0.0484375,
2010-06-09, 02:55:04,VALID,1003.7,VALID,0,VALID,95.7653,VALID,0,VALID,25.1442,VALID,9,VALID,0.0132813,
2010-06-09, 02:56:04,VALID,1003.71,VALID,0,VALID,95.8035,VALID,0,VALID,25.1053,VALID,8,VALID,0.478125,
2010-06-09, 02:57:04,VALID,1003.69,VALID,0,VALID,95.9789,VALID,0,VALID,25.0469,VALID,8,VALID,0.172266,
2010-06-09, 02:58:04,VALID,1003.69,VALID,0,VALID,96.2612,VALID,0,VALID,25.0079,VALID,8,VALID,0.021875,
2010-06-09, 02:59:04,VALID,1003.71,VALID,0,VALID,96.4825,VALID,0,VALID,24.9885,VALID,8,VALID,0.167969,
2010-06-09, 03:00:04,VALID,1003.71,VALID,0,VALID,96.6732,VALID,0,VALID,24.9904,VALID,12,VALID,0.648828,
2010-06-09, 03:01:04,VALID,1003.69,VALID,0,VALID,96.8334,VALID,0,VALID,24.9106,VALID,12,VALID,0.597266,
2010-06-09, 03:02:04,VALID,1003.65,VALID,0,VALID,96.9936,VALID,0,VALID,24.8522,VALID,12,VALID,0.509375,
2010-06-09, 03:03:04,VALID,1003.61,VALID,0,VALID,97.1385,VALID,0,VALID,24.8327,VALID,12,VALID,0.553516,
2010-06-09, 03:04:04,VALID,1003.66,VALID,0,VALID,97.3369,VALID,0,VALID,24.7937,VALID,2,VALID,0.754297,
2010-06-09, 03:05:04,VALID,1003.67,VALID,0,VALID,97.4055,VALID,0,VALID,24.7548,VALID,2,VALID,0.237891,
2010-06-09, 03:06:04,VALID,1003.66,VALID,0,VALID,97.5047,VALID,0,VALID,24.7353,VALID,2,VALID,0.547656,
2010-06-09, 03:07:04,VALID,1003.65,VALID,0,VALID,97.6039,VALID,0,VALID,24.7353,VALID,2,VALID,0.342969,
2010-06-09, 03:08:04,VALID,1003.67,VALID,0,VALID,97.787,VALID,0,VALID,24.7548,VALID,2,VALID,0.147266,
2010-06-09, 03:09:04,VALID,1003.67,VALID,0,VALID,97.8328,VALID,0,VALID,24.7548,VALID,2,VALID,0.00664063,
2010-06-09, 03:10:04,VALID,1003.66,VALID,0,VALID,97.8557,VALID,0,VALID,24.7548,VALID,2,VALID,0.0792969,
2010-06-09, 03:11:04,VALID,1003.67,VALID,0,VALID,97.8709,VALID,0,VALID,24.7548,VALID,2,VALID,0.198828,
2010-06-09, 03:12:04,VALID,1003.7,VALID,0,VALID,97.8557,VALID,0,VALID,24.7353,VALID,2,VALID,0.215625,
2010-06-09, 03:13:04,VALID,1003.7,VALID,0,VALID,97.8557,VALID,0,VALID,24.7353,VALID,2,VALID,0.0371094,
2010-06-09, 03:14:04,VALID,1003.73,VALID,0,VALID,97.909,VALID,0,VALID,24.7353,VALID,2,VALID,0.516016,
2010-06-09, 03:15:04,VALID,1003.69,VALID,0,VALID,97.9548,VALID,0,VALID,24.7159,VALID,2,VALID,0.559766,
2010-06-09, 03:16:04,VALID,1003.73,VALID,0,VALID,98.0082,VALID,0,VALID,24.7159,VALID,2,VALID,0.676953,
2010-06-09, 03:17:04,VALID,1003.72,VALID,0,VALID,98.0006,VALID,0,VALID,24.6574,VALID,2,VALID,0.453516,
2010-06-09, 03:18:04,VALID,1003.7,VALID,0,VALID,98.0693,VALID,0,VALID,24.6983,VALID,339,VALID,0.38125,
2010-06-09, 03:19:04,VALID,1003.74,VALID,0,VALID,98.1532,VALID,0,VALID,24.6769,VALID,339,VALID,0.6125,
2010-06-09, 03:20:04,VALID,1003.73,VALID,0,VALID,98.1608,VALID,0,VALID,24.6964,VALID,339,VALID,0.414844,
2010-06-09, 03:21:04,VALID,1003.73,VALID,0,VALID,98.2447,VALID,0,VALID,24.7159,VALID,339,VALID,0.395703,
2010-06-09, 03:22:04,VALID,1003.73,VALID,0,VALID,98.2447,VALID,0,VALID,24.7353,VALID,339,VALID,0.422656,
2010-06-09, 03:23:04,VALID,1003.75,VALID,0,VALID,98.2752,VALID,0,VALID,24.7335,VALID,339,VALID,0.0101562,
2010-06-09, 03:24:04,VALID,1003.73,VALID,0,VALID,98.26,VALID,0,VALID,24.7761,VALID,339,VALID,0.248828,
2010-06-09, 03:25:04,VALID,1003.76,VALID,0,VALID,98.2523,VALID,0,VALID,24.7567,VALID,339,VALID,0.350391,
2010-06-09, 03:26:04,VALID,1003.78,VALID,0,VALID,98.199,VALID,0,VALID,24.7159,VALID,274,VALID,0.516016,
2010-06-09, 03:27:04,VALID,1003.8,VALID,0,VALID,98.1532,VALID,0,VALID,24.6769,VALID,223,VALID,0.898438,
2010-06-09, 03:28:04,VALID,1003.83,VALID,0,VALID,98.1913,VALID,0,VALID,24.6964,VALID,220,VALID,0.641406,
2010-06-09, 03:29:04,VALID,1003.83,VALID,0,VALID,98.1837,VALID,0,VALID,24.6964,VALID,216,VALID,0.492578,
2010-06-09, 03:30:04,VALID,1003.84,VALID,0,VALID,98.1761,VALID,0,VALID,24.6769,VALID,216,VALID,0.509766,
2010-06-09, 03:31:04,VALID,1003.86,VALID,0,VALID,98.1913,VALID,0,VALID,24.6574,VALID,216,VALID,0.474219,
2010-06-09, 03:32:04,VALID,1003.82,VALID,0,VALID,98.1913,VALID,0,VALID,24.638,VALID,216,VALID,0.455469,
2010-06-09, 03:33:04,VALID,1003.82,VALID,0,VALID,98.1837,VALID,0,VALID,24.6185,VALID,216,VALID,0.1875,
2010-06-09, 03:34:04,VALID,1003.82,VALID,0,VALID,98.199,VALID,0,VALID,24.5796,VALID,216,VALID,0.164063,
2010-06-09, 03:35:04,VALID,1003.81,VALID,0,VALID,98.2066,VALID,0,VALID,24.5406,VALID,216,VALID,0,
2010-06-09, 03:36:04,VALID,1003.84,VALID,0,VALID,98.199,VALID,0,VALID,24.5406,VALID,216,VALID,0.227344,
2010-06-09, 03:37:04,VALID,1003.85,VALID,0,VALID,98.2295,VALID,0,VALID,24.5406,VALID,216,VALID,0.348437,
2010-06-09, 03:38:04,VALID,1003.85,VALID,0,VALID,98.2371,VALID,0,VALID,24.5212,VALID,216,VALID,0.269922,
2010-06-09, 03:39:04,VALID,1003.83,VALID,0,VALID,98.2676,VALID,0,VALID,24.5017,VALID,216,VALID,0.225391,
2010-06-09, 03:40:04,VALID,1003.8,VALID,0,VALID,98.3058,VALID,0,VALID,24.5212,VALID,216,VALID,0.000390625,
2010-06-09, 03:41:04,VALID,1003.79,VALID,0,VALID,98.3134,VALID,0,VALID,24.5017,VALID,216,VALID,0.419141,
2010-06-09, 03:42:04,VALID,1003.78,VALID,0,VALID,98.3439,VALID,0,VALID,24.4804,VALID,216,VALID,0.488281,
2010-06-09, 03:43:04,VALID,1003.8,VALID,0,VALID,98.3668,VALID,0,VALID,24.5017,VALID,216,VALID,0.391406,
2010-06-09, 03:44:04,VALID,1003.82,VALID,0,VALID,98.3668,VALID,0,VALID,24.4804,VALID,216,VALID,0.338672,
2010-06-09, 03:45:04,VALID,1003.81,VALID,0,VALID,98.3668,VALID,0,VALID,24.4822,VALID,216,VALID,0.515234,
2010-06-09, 03:46:04,VALID,1003.76,VALID,0,VALID,98.382,VALID,0.100563,VALID,24.4785,VALID,19,VALID,0.925,
2010-06-09, 03:47:04,VALID,1003.71,VALID,0,VALID,98.3668,VALID,0.100563,VALID,24.4998,VALID,345,VALID,0.691016,
2010-06-09, 03:48:04,VALID,1003.67,VALID,0,VALID,98.3668,VALID,0.100563,VALID,24.4998,VALID,346,VALID,0.425391,
2010-06-09, 03:49:04,VALID,1003.67,VALID,0,VALID,98.3668,VALID,0.100563,VALID,24.4998,VALID,346,VALID,0.165234,